Weather History for Jackson, KY

Change the Weather History Date:

Friday, June 14, 2013

  Actual Average Record
Temperature  
Mean Temperature 68 °F 72 °F  
Max Temperature 78 °F 82 °F 90 °F (1984)
Min Temperature 57 °F 62 °F 48 °F (1985)
Degree Days  
Heating Degree Days 0 0  
Month to date heating degree days 0 9  
Since 1 June heating degree days 0 9  
Since 1 July heating degree days 4364 4231  
Cooling Degree Days 3 7  
Month to date cooling degree days 86 83  
Year to date cooling degree days 234 219  
Since 1 June cooling degree days 86 83  
Growing Degree Days 17 (Base 50)    
Moisture  
Dew Point 56 °F    
Average Humidity 70    
Maximum Humidity 93    
Minimum Humidity 47    
Precipitation  
Precipitation 0.00 in 0.16 in 1.85 in (1993)
Month to date precipitation 2.98 2.31  
Year to date precipitation 23.18 22.82  
Snow  
Snow 0.00 in 0.00 in - ()
Month to date snowfall 0.0 0.0  
Since 1 June snowfall 0.0 0.0  
Since 1 July snowfall 20.0 23.5  
Snow Depth 0.00 in    
Sea Level Pressure  
Sea Level Pressure 29.99 in    
Wind  
Wind Speed 1 mph (NW)    
Max Wind Speed 9 mph    
Max Gust Speed 15 mph    
Visibility 10 miles    
Events      
T = Trace of Precipitation, MM = Missing Value Source: NWS Daily Summary

Daily Weather History Graph

Daily Weather History Graph

Search for Another Location

Airport:

Trip Planner

Search our weather history database for the weather conditions in past years. The results will help you decide how hot, cold, wet, or windy it might be!

Date:

Astronomy

Jun. 14, 2013 Rise Set
Actual Time 6:11 AM EDT 8:56 PM EDT
Civil Twilight 5:40 AM EDT 9:27 PM EDT
Nautical Twilight 5:01 AM EDT 10:06 PM EDT
Astronomical Twilight 4:17 AM EDT 10:50 PM EDT
Moon 11:39 AM EDT (6/14) 12:06 AM EDT (6/14)
Length of Visible Light 15h 47m
Length of Day
14h 44m
Waxing Crescent, 30% of the Moon is Illuminated
Jun 14
Waxing Crescent
Jun 16
First Quarter
Jun 23
Full
Jun 30
Last Quarter
Jul 8
New

Hourly Weather History & Observations

Time (EDT) Temp. Dew Point Humidity Pressure Visibility Wind Dir Wind Speed Gust Speed Precip Events Conditions
12:53 AM 62.1 °F 57.9 °F 86% 29.92 in 10.0 mi Calm Calm - N/A   Clear
1:53 AM 62.1 °F 57.9 °F 86% 29.91 in 10.0 mi West 5.8 mph - N/A   Clear
2:53 AM 62.1 °F 57.0 °F 84% 29.90 in 10.0 mi NW 5.8 mph - N/A   Clear
3:53 AM 60.1 °F 55.9 °F 86% 29.90 in 10.0 mi NNW 4.6 mph - N/A   Clear
4:53 AM 60.1 °F 55.0 °F 83% 29.90 in 10.0 mi North 3.5 mph - N/A   Clear
5:53 AM 59.0 °F 55.0 °F 87% 29.92 in 10.0 mi Calm Calm - N/A   Clear
6:53 AM 57.9 °F 55.0 °F 90% 29.96 in 10.0 mi WNW 3.5 mph - N/A   Clear
7:53 AM 60.1 °F 55.9 °F 86% 29.98 in 10.0 mi Calm Calm - N/A   Clear
8:53 AM 62.1 °F 55.9 °F 80% 30.00 in 10.0 mi Calm Calm - N/A   Clear
9:53 AM 66.0 °F 57.0 °F 73% 30.02 in 10.0 mi Calm Calm - N/A   Clear
10:53 AM 69.1 °F 57.0 °F 65% 30.01 in 10.0 mi Calm Calm - N/A   Clear
11:53 AM 72.0 °F 57.9 °F 61% 30.02 in 10.0 mi Calm Calm - N/A   Partly Cloudy
12:53 PM 75.0 °F 57.9 °F 55% 30.03 in 10.0 mi Calm Calm - N/A   Partly Cloudy
1:53 PM 73.9 °F 55.9 °F 53% 30.03 in 10.0 mi Variable 4.6 mph - N/A   Scattered Clouds
2:53 PM 75.9 °F 57.0 °F 52% 30.01 in 10.0 mi Variable 3.5 mph - N/A   Partly Cloudy
3:53 PM 75.0 °F 55.9 °F 51% 30.01 in 10.0 mi Calm Calm - N/A   Mostly Cloudy
4:53 PM 77.0 °F 55.9 °F 48% 30.01 in 10.0 mi Calm Calm - N/A   Clear
5:53 PM 77.0 °F 55.9 °F 48% 30.01 in 10.0 mi Variable 3.5 mph - N/A   Scattered Clouds
6:53 PM 75.0 °F 55.0 °F 50% 30.01 in 10.0 mi Calm Calm - N/A   Clear
7:53 PM 73.9 °F 55.9 °F 53% 30.01 in 10.0 mi Calm Calm - N/A   Clear
8:53 PM 69.1 °F 55.9 °F 63% 30.02 in 10.0 mi Calm Calm - N/A   Clear
9:53 PM 66.9 °F 55.9 °F 68% 30.02 in 10.0 mi Calm Calm - N/A   Clear
10:53 PM 66.9 °F 57.0 °F 70% 30.06 in 10.0 mi Calm Calm - N/A   Clear
11:53 PM 64.9 °F 55.9 °F 73% 30.07 in 10.0 mi Calm Calm - N/A   Clear